• In Deutschland
  • Länderverzeichnis
  • Für 7 Tage
  • Wassertemperatur
  • Satellitenkarten
  • Wetterkarte
  • Widgets
  • user-avatar
    Anmelden

    Stündliche Wetter Zabrze

    Heute, 23 September, Sonntag

    Zeit Temperatur Niederschläge Wind Luftdruck Luftfeuchtigkeit
    00:00 +13°C° 0.1 mm 3 m/S 742 mmHg 61%
    01:00 +13°C° 0 mm 4 m/S 741 mmHg 60%
    02:00 +13°C° 0.1 mm 4 m/S 741 mmHg 62%
    03:00 +12°C° 0.1 mm 4 m/S 741 mmHg 64%
    04:00 +12°C° 0.1 mm 3 m/S 741 mmHg 67%
    05:00 +12°C° 0 mm 4 m/S 741 mmHg 66%
    06:00 +12°C° 0 mm 4 m/S 740 mmHg 66%
    07:00 +13°C° 0 mm 4 m/S 740 mmHg 63%
    08:00 +14°C° 0 mm 4 m/S 740 mmHg 59%
    09:00 +15°C° 0 mm 5 m/S 740 mmHg 54%
    10:00 +16°C° 0 mm 5 m/S 740 mmHg 50%
    11:00 +16°C° 0 mm 5 m/S 739 mmHg 51%
    12:00 +16°C° 0 mm 6 m/S 739 mmHg 53%
    13:00 +16°C° 0 mm 6 m/S 739 mmHg 55%
    14:00 +15°C° 0.1 mm 6 m/S 738 mmHg 60%
    15:00 +15°C° 0.1 mm 5 m/S 737 mmHg 66%
    16:00 +14°C° 0.1 mm 5 m/S 736 mmHg 71%
    17:00 +14°C° 0.1 mm 6 m/S 734 mmHg 71%
    18:00 +14°C° 0.1 mm 7 m/S 733 mmHg 72%
    19:00 +14°C° 0.1 mm 7 m/S 732 mmHg 73%
    20:00 +15°C° 0.5 mm 8 m/S 731 mmHg 73%
    21:00 +15°C° 0.5 mm 8 m/S 730 mmHg 73%
    22:00 +16°C° 0.5 mm 9 m/S 729 mmHg 73%
    23:00 +15°C° 2.6 mm 9 m/S 729 mmHg 77%

    Morgen, 24 September, Montag

    Zeit Temperatur Niederschläge Wind Luftdruck Luftfeuchtigkeit
    00:00 +15°C° 2.6 mm 9 m/S 729 mmHg 80%
    01:00 +13°C° 2.6 mm 9 m/S 730 mmHg 84%
    02:00 +11°C° 0.6 mm 9 m/S 731 mmHg 83%
    03:00 +10°C° 0.6 mm 9 m/S 733 mmHg 82%
    04:00 +7°C° 0.6 mm 10 m/S 735 mmHg 81%
    05:00 +7°C° 0.1 mm 9 m/S 736 mmHg 81%
    06:00 +7°C° 0.1 mm 8 m/S 737 mmHg 81%
    07:00 +7°C° 0.1 mm 8 m/S 738 mmHg 81%
    08:00 +7°C° 0.3 mm 8 m/S 739 mmHg 77%
    09:00 +7°C° 0.3 mm 8 m/S 740 mmHg 74%
    10:00 +8°C° 0.3 mm 9 m/S 741 mmHg 71%
    11:00 +8°C° 0.2 mm 9 m/S 742 mmHg 67%
    12:00 +10°C° 0.2 mm 9 m/S 743 mmHg 63%
    13:00 +10°C° 0.2 mm 9 m/S 743 mmHg 59%
    14:00 +10°C° 0.1 mm 9 m/S 743 mmHg 57%
    15:00 +10°C° 0.1 mm 9 m/S 743 mmHg 55%
    16:00 +10°C° 0.1 mm 9 m/S 743 mmHg 54%
    17:00 +9°C° 0 mm 8 m/S 743 mmHg 55%
    18:00 +8°C° 0 mm 7 m/S 744 mmHg 57%
    19:00 +7°C° 0 mm 6 m/S 744 mmHg 59%
    20:00 +7°C° 0.1 mm 6 m/S 745 mmHg 61%
    21:00 +7°C° 0.1 mm 6 m/S 745 mmHg 64%
    22:00 +5°C° 0.1 mm 6 m/S 746 mmHg 66%
    23:00 +5°C° 0.2 mm 6 m/S 746 mmHg 71%

    übermorgen, 25 September, Dienstag

    Zeit Temperatur Niederschläge Wind Luftdruck Luftfeuchtigkeit
    00:00 +5°C° 0.2 mm 6 m/S 747 mmHg 75%
    01:00 +5°C° 0.2 mm 6 m/S 748 mmHg 80%
    02:00 +5°C° 0 mm 5 m/S 748 mmHg 81%
    03:00 +5°C° 0 mm 5 m/S 748 mmHg 82%
    04:00 +5°C° 0 mm 4 m/S 749 mmHg 84%
    05:00 +5°C° 0 mm 4 m/S 749 mmHg 82%
    06:00 +5°C° 0 mm 4 m/S 750 mmHg 80%
    07:00 +5°C° 0 mm 5 m/S 751 mmHg 79%
    08:00 +6°C° 0 mm 5 m/S 751 mmHg 73%
    09:00 +7°C° 0 mm 5 m/S 751 mmHg 68%
    10:00 +8°C° 0 mm 5 m/S 752 mmHg 63%
    11:00 +9°C° 0.2 mm 5 m/S 752 mmHg 60%
    12:00 +10°C° 0.2 mm 5 m/S 752 mmHg 57%
    13:00 +12°C° 0.2 mm 5 m/S 752 mmHg 53%
    14:00 +10°C° 0.1 mm 5 m/S 752 mmHg 54%
    15:00 +10°C° 0.1 mm 5 m/S 752 mmHg 54%
    16:00 +10°C° 0.1 mm 5 m/S 752 mmHg 55%
    17:00 +10°C° 0 mm 4 m/S 752 mmHg 60%
    18:00 +9°C° 0 mm 3 m/S 753 mmHg 65%
    19:00 +8°C° 0 mm 2 m/S 753 mmHg 71%
    20:00 +7°C° 0 mm 2 m/S 754 mmHg 73%
    21:00 +7°C° 0 mm 2 m/S 754 mmHg 75%
    22:00 +6°C° 0 mm 2 m/S 754 mmHg 76%
    23:00 +7°C° 0 mm 1 m/S 754 mmHg 78%

    26 September, Mittwoch

    Zeit Temperatur Niederschläge Wind Luftdruck Luftfeuchtigkeit
    00:00 +6°C° 0 mm 1 m/S 754 mmHg 79%
    01:00 +6°C° 0 mm 1 m/S 754 mmHg 80%
    02:00 +6°C° 0 mm 1 m/S 754 mmHg 81%
    03:00 +6°C° 0 mm 1 m/S 754 mmHg 81%
    04:00 +5°C° 0 mm 1 m/S 754 mmHg 82%
    05:00 +6°C° 0 mm 1 m/S 754 mmHg 79%
    06:00 +5°C° 0 mm 2 m/S 754 mmHg 77%
    07:00 +6°C° 0 mm 2 m/S 754 mmHg 75%
    08:00 +8°C° 0 mm 2 m/S 754 mmHg 66%
    09:00 +10°C° 0 mm 3 m/S 754 mmHg 57%
    10:00 +12°C° 0 mm 3 m/S 754 mmHg 49%
    11:00 +13°C° 0 mm 3 m/S 753 mmHg 46%
    12:00 +14°C° 0 mm 4 m/S 753 mmHg 43%
    13:00 +15°C° 0 mm 4 m/S 752 mmHg 40%
    14:00 +14°C° 0 mm 4 m/S 751 mmHg 41%
    15:00 +14°C° 0 mm 4 m/S 751 mmHg 43%
    16:00 +14°C° 0 mm 4 m/S 750 mmHg 44%
    17:00 +13°C° 0 mm 4 m/S 750 mmHg 47%
    18:00 +12°C° 0 mm 4 m/S 750 mmHg 51%
    19:00 +11°C° 0 mm 4 m/S 750 mmHg 54%
    20:00 +11°C° 0 mm 4 m/S 750 mmHg 53%
    21:00 +11°C° 0 mm 4 m/S 750 mmHg 52%
    22:00 +11°C° 0 mm 4 m/S 749 mmHg 51%
    23:00 +10°C° 0 mm 4 m/S 749 mmHg 51%

    27 September, Donnerstag

    Zeit Temperatur Niederschläge Wind Luftdruck Luftfeuchtigkeit
    00:00 +10°C° 0 mm 4 m/S 749 mmHg 52%
    01:00 +10°C° 0 mm 4 m/S 749 mmHg 52%
    02:00 +10°C° 0 mm 4 m/S 748 mmHg 52%
    03:00 +10°C° 0 mm 4 m/S 748 mmHg 51%
    04:00 +10°C° 0 mm 4 m/S 748 mmHg 51%
    05:00 +10°C° 0 mm 4 m/S 748 mmHg 50%
    06:00 +11°C° 0 mm 4 m/S 748 mmHg 50%
    07:00 +11°C° 0 mm 4 m/S 748 mmHg 50%
    08:00 +13°C° 0 mm 4 m/S 748 mmHg 49%
    09:00 +15°C° 0 mm 4 m/S 748 mmHg 48%
    10:00 +16°C° 0 mm 5 m/S 748 mmHg 46%
    11:00 +19°C° 0 mm 5 m/S 747 mmHg 48%
    12:00 +20°C° 0 mm 5 m/S 747 mmHg 49%
    13:00 +21°C° 0 mm 5 m/S 747 mmHg 50%
    14:00 +21°C° 0 mm 4 m/S 747 mmHg 52%
    15:00 +21°C° 0 mm 4 m/S 746 mmHg 54%
    16:00 +21°C° 0 mm 3 m/S 746 mmHg 56%
    17:00 +19°C° 0 mm 3 m/S 746 mmHg 61%
    18:00 +18°C° 0 mm 3 m/S 746 mmHg 66%
    19:00 +16°C° 0 mm 2 m/S 746 mmHg 71%
    20:00 +16°C° 0 mm 2 m/S 746 mmHg 71%
    21:00 +15°C° 0 mm 2 m/S 745 mmHg 72%
    22:00 +15°C° 0 mm 2 m/S 745 mmHg 72%
    23:00 +14°C° 0 mm 2 m/S 745 mmHg 72%

    28 September, Freitag

    Zeit Temperatur Niederschläge Wind Luftdruck Luftfeuchtigkeit
    00:00 +14°C° 0 mm 2 m/S 744 mmHg 71%
    01:00 +14°C° 0 mm 2 m/S 744 mmHg 71%
    02:00 +13°C° 0 mm 3 m/S 744 mmHg 71%
    03:00 +13°C° 0 mm 3 m/S 743 mmHg 70%
    04:00 +12°C° 0 mm 3 m/S 743 mmHg 70%
    05:00 +13°C° 0 mm 3 m/S 743 mmHg 68%
    06:00 +13°C° 0 mm 3 m/S 743 mmHg 66%
    07:00 +13°C° 0 mm 3 m/S 743 mmHg 65%
    08:00 +16°C° 0 mm 3 m/S 743 mmHg 58%
    09:00 +18°C° 0 mm 3 m/S 743 mmHg 52%
    10:00 +20°C° 0 mm 3 m/S 743 mmHg 45%
    11:00 +21°C° 0 mm 3 m/S 742 mmHg 43%
    12:00 +22°C° 0 mm 3 m/S 742 mmHg 41%
    13:00 +22°C° 0 mm 3 m/S 742 mmHg 39%
    14:00 +22°C° 0 mm 3 m/S 742 mmHg 42%
    15:00 +23°C° 0 mm 2 m/S 741 mmHg 44%
    16:00 +21°C° 0 mm 2 m/S 741 mmHg 46%
    17:00 +20°C° 0 mm 2 m/S 741 mmHg 52%
    18:00 +18°C° 0 mm 2 m/S 742 mmHg 59%
    19:00 +16°C° 0 mm 2 m/S 742 mmHg 66%
    20:00 +15°C° 0 mm 2 m/S 742 mmHg 71%
    21:00 +15°C° 0 mm 2 m/S 742 mmHg 77%
    22:00 +14°C° 0 mm 2 m/S 742 mmHg 82%
    23:00 +14°C° 0 mm 2 m/S 742 mmHg 85%
    Mehr zeigen